Weather in Slabnevo

Russia / Ivanovo Oblast     56°40′52″N   41°14′06″E
temp.,
°C
wind,
m/s
gust,
m/s
humid.,
%
clouds,
%
prec.,
mm/h
press.,
hPa
HPBL,
m
24 july, sat
sat2400:00+11nw38835 0.0 1007180
03:00+9nw2696100 0.0 1008125
06:00+11nnw3684100 0.0 1010270
09:00+15nnw346490 0.1 1011842
12:00+19nnw3442100 0.3 10122213
15:00+20nw2534100 0.3 10132561
18:00+20wnw2439100 0.0 1014783
21:00+15nw114869 0.0 101619
25 july, sun
sun2500:00+10w11625 0.0 101811
03:00+9w116521 0.0 101911
06:00+13sw2359100 0.0 102089
09:00+19wsw244011 0.0 1020652
12:00+22w233080 0.0 10212446
15:00+23w443143 0.0 10202481
18:00+19wsw374878 0.0 1021300
21:00+15wsw24666 0.0 102256
26 july, mon
mon2600:00+16w2358100 0.0 102265
03:00+15w2263100 0.0 102337
06:00+15wsw226495 0.0 102334
09:00+20wsw234954 0.0 1023458
12:00+25w3531100 0.0 10232978
15:00+25wnw3534100 0.0 10222680
18:00+22wsw255223 0.0 1022299
21:00+17w256527 0.0 102273
27 july, tue
tue2700:00+15w23725 0.0 102361
03:00+14w23825 0.0 102346
06:00+16w24778 0.0 1023108
09:00+23w34525 0.0 1022653
12:00+27w343375 0.0 10212844
15:00+27w343794 0.0 10201965
18:00+22se116141 0.1 102055
21:00+18n117066 0.1 102016
28 july, wed
wed2800:00+16w22745 0.1 102040
03:00+15wsw22795 0.1 101923
06:00+17wsw24805 0.0 1019113
09:00+24wsw34505 0.0 1018599
12:00+28wsw353583 0.0 10162556
15:00+27wsw354122 0.0 10151838
18:00+27wsw35435 0.0 10131148
21:00+20s226896 0.0 101316